{"data":{"norad_id":59084,"epoch":"2026-09-20T02:37:53.903424Z","epoch_age_seconds":192545,"freshness":"STALE","line1":"1 59084U 24041L   26263.10965166  .00000027  00000+0  10496-4 0  9992","line2":"2 59084  43.0005 292.8823 0000900 276.7404  83.3345 15.27575831144057","mean_motion":15.27575831,"eccentricity":9.0e-5,"inclination_deg":43.0005,"raan_deg":292.8823,"arg_perigee_deg":276.7404,"mean_anomaly_deg":83.3345,"bstar":1.0496e-5,"rev_number":14405,"period_min":94.267005982762,"perigee_km":482.44407168167,"apogee_km":483.67908742599,"semimajor_km":6861.1985795538,"source":"CELESTRAK","updated_at":"2026-09-21T09:00:34.035432Z"}}